When you browse on this site, cookies collect data to enhance your experience and personalize the content and advertising you see.
Visit our Privacy Policy to learn more. By continuing to use the site, you agree to this use of cookies and data.
  • In Hungary
  • List of Countries
  • For 7 days
  • Water Temperature
  • Satellite Maps
  • Weather Map
  • News
  • Weather Widgets
  • user-avatar
    Login

    Hourly Weather Poti

    Today, 20 November, Tuesday

    Time Temperature Precipitation Wind Pressure Humidity
    00:00 +12°C° 0 mm 7 mps 765 mmHg 46%
    01:00 +12°C° 0 mm 7 mps 765 mmHg 47%
    02:00 +12°C° 0 mm 7 mps 765 mmHg 49%
    03:00 +12°C° 0 mm 7 mps 764 mmHg 50%
    04:00 +13°C° 0 mm 6 mps 764 mmHg 51%
    05:00 +11°C° 0 mm 6 mps 764 mmHg 53%
    06:00 +11°C° 0 mm 6 mps 764 mmHg 54%
    07:00 +13°C° 0 mm 5 mps 765 mmHg 54%
    08:00 +14°C° 0 mm 5 mps 765 mmHg 55%
    09:00 +15°C° 0 mm 4 mps 765 mmHg 55%
    10:00 +15°C° 0.4 mm 4 mps 765 mmHg 57%
    11:00 +16°C° 0.4 mm 5 mps 765 mmHg 58%
    12:00 +16°C° 0.4 mm 5 mps 765 mmHg 59%
    13:00 +16°C° 0.7 mm 5 mps 765 mmHg 68%
    14:00 +15°C° 0.7 mm 5 mps 765 mmHg 77%
    15:00 +14°C° 0.7 mm 4 mps 765 mmHg 86%
    16:00 +14°C° 0.7 mm 4 mps 765 mmHg 87%
    17:00 +13°C° 0.7 mm 4 mps 766 mmHg 88%
    18:00 +13°C° 0.7 mm 3 mps 766 mmHg 90%
    19:00 +13°C° 0.7 mm 3 mps 766 mmHg 88%
    20:00 +13°C° 0.7 mm 3 mps 766 mmHg 87%
    21:00 +13°C° 0.7 mm 4 mps 765 mmHg 85%
    22:00 +13°C° 0.6 mm 3 mps 765 mmHg 87%
    23:00 +13°C° 0.6 mm 3 mps 765 mmHg 88%

    Tomorrow, 21 November, Wednesday

    Time Temperature Precipitation Wind Pressure Humidity
    00:00 +13°C° 0.6 mm 3 mps 765 mmHg 90%
    01:00 +13°C° 0.5 mm 3 mps 765 mmHg 90%
    02:00 +13°C° 0.5 mm 2 mps 765 mmHg 90%
    03:00 +13°C° 0.5 mm 2 mps 765 mmHg 90%
    04:00 +13°C° 0.4 mm 2 mps 765 mmHg 89%
    05:00 +13°C° 0.4 mm 2 mps 765 mmHg 89%
    06:00 +13°C° 0.4 mm 1 mps 764 mmHg 88%
    07:00 +13°C° 0.3 mm 1 mps 764 mmHg 86%
    08:00 +14°C° 0.3 mm 2 mps 764 mmHg 84%
    09:00 +14°C° 0.3 mm 2 mps 763 mmHg 83%
    10:00 +14°C° 0.4 mm 2 mps 763 mmHg 80%
    11:00 +15°C° 0.4 mm 2 mps 762 mmHg 78%
    12:00 +15°C° 0.4 mm 2 mps 762 mmHg 76%
    13:00 +15°C° 0.3 mm 2 mps 761 mmHg 77%
    14:00 +15°C° 0.3 mm 2 mps 761 mmHg 79%
    15:00 +13°C° 0.3 mm 3 mps 761 mmHg 81%
    16:00 +13°C° 0.3 mm 3 mps 761 mmHg 82%
    17:00 +12°C° 0.3 mm 3 mps 761 mmHg 83%
    18:00 +12°C° 0.3 mm 3 mps 761 mmHg 84%
    19:00 +13°C° 0.4 mm 2 mps 761 mmHg 84%
    20:00 +13°C° 0.4 mm 2 mps 760 mmHg 84%
    21:00 +13°C° 0.4 mm 2 mps 760 mmHg 84%
    22:00 +13°C° 0.4 mm 2 mps 760 mmHg 84%
    23:00 +12°C° 0.4 mm 2 mps 760 mmHg 84%

    Day after tomorrow, 22 November, Thursday

    Time Temperature Precipitation Wind Pressure Humidity
    00:00 +12°C° 0.4 mm 2 mps 760 mmHg 84%
    01:00 +11°C° 0.4 mm 3 mps 760 mmHg 84%
    02:00 +11°C° 0.4 mm 3 mps 760 mmHg 85%
    03:00 +11°C° 0.4 mm 3 mps 760 mmHg 86%
    04:00 +11°C° 0.6 mm 3 mps 760 mmHg 86%
    05:00 +11°C° 0.6 mm 3 mps 759 mmHg 86%
    06:00 +11°C° 0.6 mm 4 mps 759 mmHg 86%
    07:00 +11°C° 0.8 mm 4 mps 759 mmHg 85%
    08:00 +12°C° 0.8 mm 4 mps 759 mmHg 85%
    09:00 +12°C° 0.8 mm 5 mps 760 mmHg 84%
    10:00 +12°C° 1.3 mm 5 mps 759 mmHg 83%
    11:00 +13°C° 1.3 mm 5 mps 759 mmHg 81%
    12:00 +13°C° 1.3 mm 5 mps 759 mmHg 80%
    13:00 +13°C° 1.4 mm 5 mps 759 mmHg 83%
    14:00 +12°C° 1.4 mm 5 mps 759 mmHg 85%
    15:00 +12°C° 1.4 mm 5 mps 759 mmHg 87%
    16:00 +12°C° 1 mm 5 mps 759 mmHg 87%
    17:00 +12°C° 1 mm 5 mps 760 mmHg 87%
    18:00 +10°C° 1 mm 5 mps 760 mmHg 86%
    19:00 +10°C° 0.9 mm 5 mps 760 mmHg 86%
    20:00 +10°C° 0.9 mm 5 mps 761 mmHg 86%
    21:00 +10°C° 0.9 mm 5 mps 761 mmHg 86%
    22:00 +11°C° 0.8 mm 4 mps 761 mmHg 87%
    23:00 +11°C° 0.8 mm 4 mps 761 mmHg 87%

    23 November, Friday

    Time Temperature Precipitation Wind Pressure Humidity
    00:00 +11°C° 0.8 mm 4 mps 761 mmHg 88%
    01:00 +11°C° 0.9 mm 4 mps 761 mmHg 89%
    02:00 +11°C° 0.9 mm 3 mps 762 mmHg 90%
    03:00 +11°C° 0.9 mm 3 mps 762 mmHg 91%
    04:00 +11°C° 1.2 mm 3 mps 762 mmHg 92%
    05:00 +11°C° 1.2 mm 4 mps 762 mmHg 93%
    06:00 +11°C° 1.2 mm 4 mps 763 mmHg 93%
    07:00 +11°C° 0.7 mm 4 mps 763 mmHg 93%
    08:00 +10°C° 0.7 mm 5 mps 764 mmHg 93%
    09:00 +10°C° 0.7 mm 5 mps 764 mmHg 93%
    10:00 +10°C° 0.3 mm 5 mps 764 mmHg 92%
    11:00 +10°C° 0.3 mm 5 mps 765 mmHg 91%
    12:00 +10°C° 0.3 mm 5 mps 765 mmHg 90%
    13:00 +12°C° 0.2 mm 5 mps 765 mmHg 89%
    14:00 +12°C° 0.2 mm 5 mps 765 mmHg 87%
    15:00 +12°C° 0.2 mm 5 mps 765 mmHg 86%
    16:00 +11°C° 0.1 mm 4 mps 766 mmHg 88%
    17:00 +10°C° 0.1 mm 4 mps 766 mmHg 89%
    18:00 +10°C° 0.1 mm 4 mps 767 mmHg 91%
    19:00 +10°C° 0.1 mm 4 mps 767 mmHg 91%
    20:00 +10°C° 0.1 mm 3 mps 768 mmHg 91%
    21:00 +10°C° 0.1 mm 3 mps 768 mmHg 91%
    22:00 +9°C° 0 mm 3 mps 768 mmHg 91%
    23:00 +9°C° 0 mm 2 mps 769 mmHg 92%

    24 November, Saturday

    Time Temperature Precipitation Wind Pressure Humidity
    00:00 +9°C° 0 mm 2 mps 769 mmHg 92%
    01:00 +9°C° 0 mm 2 mps 769 mmHg 92%
    02:00 +9°C° 0 mm 2 mps 769 mmHg 92%
    03:00 +8°C° 0 mm 2 mps 769 mmHg 92%
    04:00 +8°C° 0 mm 2 mps 769 mmHg 90%
    05:00 +8°C° 0 mm 2 mps 769 mmHg 89%
    06:00 +8°C° 0 mm 2 mps 770 mmHg 87%
    07:00 +8°C° 0 mm 3 mps 770 mmHg 84%
    08:00 +9°C° 0 mm 3 mps 770 mmHg 81%
    09:00 +10°C° 0 mm 3 mps 770 mmHg 77%
    10:00 +11°C° 0 mm 3 mps 770 mmHg 72%
    11:00 +13°C° 0 mm 3 mps 769 mmHg 67%
    12:00 +14°C° 0 mm 3 mps 769 mmHg 62%
    13:00 +14°C° 0 mm 3 mps 768 mmHg 62%
    14:00 +16°C° 0 mm 3 mps 768 mmHg 63%
    15:00 +16°C° 0 mm 3 mps 768 mmHg 63%
    16:00 +14°C° 0 mm 3 mps 768 mmHg 65%
    17:00 +12°C° 0 mm 3 mps 768 mmHg 67%
    18:00 +11°C° 0 mm 3 mps 768 mmHg 70%
    19:00 +10°C° 0 mm 3 mps 768 mmHg 68%
    20:00 +10°C° 0 mm 4 mps 768 mmHg 66%
    21:00 +10°C° 0 mm 4 mps 768 mmHg 63%
    22:00 +10°C° 0 mm 4 mps 768 mmHg 63%
    23:00 +9°C° 0 mm 5 mps 768 mmHg 62%

    25 November, Sunday

    Time Temperature Precipitation Wind Pressure Humidity
    00:00 +9°C° 0 mm 5 mps 768 mmHg 61%
    01:00 +9°C° 0 mm 5 mps 768 mmHg 61%
    02:00 +8°C° 0 mm 5 mps 768 mmHg 62%
    03:00 +8°C° 0 mm 5 mps 767 mmHg 62%
    04:00 +8°C° 0 mm 4 mps 767 mmHg 62%
    05:00 +8°C° 0 mm 4 mps 767 mmHg 63%
    06:00 +8°C° 0 mm 4 mps 766 mmHg 63%
    07:00 +10°C° 0 mm 4 mps 766 mmHg 63%
    08:00 +11°C° 0 mm 3 mps 766 mmHg 63%
    09:00 +11°C° 0 mm 3 mps 766 mmHg 62%
    10:00 +13°C° 0 mm 3 mps 765 mmHg 58%
    11:00 +15°C° 0 mm 2 mps 765 mmHg 54%
    12:00 +17°C° 0 mm 2 mps 764 mmHg 50%
    13:00 +17°C° 0 mm 2 mps 764 mmHg 53%
    14:00 +17°C° 0 mm 2 mps 764 mmHg 56%
    15:00 +16°C° 0 mm 1 mps 763 mmHg 59%
    16:00 +15°C° 0 mm 2 mps 764 mmHg 64%
    17:00 +14°C° 0 mm 2 mps 764 mmHg 69%
    18:00 +12°C° 0 mm 2 mps 764 mmHg 74%
    19:00 +12°C° 0 mm 2 mps 764 mmHg 75%
    20:00 +12°C° 0 mm 2 mps 765 mmHg 76%
    21:00 +10°C° 0 mm 2 mps 765 mmHg 77%
    22:00 +10°C° 0 mm 2 mps 765 mmHg 77%
    23:00 +10°C° 0 mm 2 mps 765 mmHg 76%
    Show more